Location: Unspecified
(41.5516°N, 88.1098°W)
Time: 01:38:08
(UTC-06:00)

Hubble Space Telescope - Visible Passes

Search period start: 28 February 2017 00:00
Search period end: 10 March 2017 00:00
Orbit: 538 x 542 km, 28.5° (Epoch: 27 February)

Date Brightness Start Highest point End Pass type
(mag) Time Alt. Az. Time Alt. Az. Time Alt. Az.
28 Feb 3.0 19:27:27 10° SSW 19:29:26 13° S 19:29:36 13° S visible
01 Mar 3.1 19:17:25 10° SSW 19:19:20 13° S 19:20:16 12° S visible
02 Mar 3.2 19:07:27 10° SSW 19:09:13 12° S 19:10:56 10° SSE visible
03 Mar 3.2 18:57:38 10° SSW 18:59:06 12° S 19:00:33 10° SSE visible
04 Mar 3.4 18:48:04 10° SSW 18:48:58 11° S 18:49:52 10° S visible
